Providence, RI

6:02 PM EST on December 14, 2017 (GMT -0500)
Green State

Weather History for KPVD - January, 2014

Change the Weather History Date:

Saturday, January 25, 2014

  Actual Average Record
Temperature  
Mean Temperature 25 °F 29 °F  
Max Temperature 38 °F 37 °F 60 °F (1990)
Min Temperature 11 °F 21 °F -3 °F (1945)
Degree Days  
Heating Degree Days 40 36  
Month to date heating degree days 929 896  
Since 1 July heating degree days 3008 2923  
Cooling Degree Days 0 0  
Month to date cooling degree days 0 0  
Year to date cooling degree days 0 0  
Moisture  
Dew Point 20 °F    
Average Humidity 70    
Maximum Humidity 85    
Minimum Humidity 54    
Precipitation  
Precipitation 0.01 in 0.12 in 1.71 in (1979)
Month to date precipitation 3.62 3.13  
Year to date precipitation 3.62 3.13  
Snow  
Snow 0.20 in 0.30 in 9.00 in (1941)
Month to date snowfall 14.1 7.2  
Since 1 July snowfall 21.2 17.4  
Snow Depth 2.00 in    
Sea Level Pressure  
Sea Level Pressure 29.61 in    
Wind  
Wind Speed 14 mph (SW)    
Max Wind Speed 36 mph    
Max Gust Speed 45 mph    
Visibility 8 miles    
Events Snow    
T = Trace of Precipitation, MM = Missing Value Source: NWS Daily Summary

Daily Weather History Graph

Daily Weather History Graph

Search for Another Location

Airport or City:

Trip Planner

Search our weather history database for the weather conditions in past years. The results will help you decide how hot, cold, wet, or windy it might be!

Date:

Astronomy

Jan. 25, 2014 Rise Set
Actual Time 7:04 AM EST 4:52 PM EST
Civil Twilight 6:34 AM EST 5:22 PM EST
Nautical Twilight 6:00 AM EST 5:56 PM EST
Astronomical Twilight 5:27 AM EST 6:28 PM EST
Moon 1:32 AM EST (1/25) 11:50 AM EST (1/25)
Length of Visible Light 10h 48m
Length of Day
9h 48m
Waning Crescent, 34% of the Moon is Illuminated
Jan 25
Waning Crescent
Jan 30
New
Feb 6
First Quarter
Feb 14
Full
Feb 22
Last Quarter

Hourly Weather History & Observations

Time (EST) Temp. Windchill Dew Point Humidity Pressure Visibility Wind Dir Wind Speed Gust Speed Precip Events Conditions
12:51 AM 14.0 °F 3.9 °F 3.0 °F 62% 30.07 in 10.0 mi South 6.9 mph - N/A   Clear
1:51 AM 15.1 °F 4.2 °F 3.0 °F 59% 30.04 in 10.0 mi South 8.1 mph - N/A   Clear
2:51 AM 14.0 °F 3.9 °F 3.0 °F 62% 30.02 in 10.0 mi SSW 6.9 mph - N/A   Clear
3:51 AM 18.0 °F 6.9 °F 6.1 °F 60% 29.97 in 10.0 mi SSW 9.2 mph - N/A   Clear
4:51 AM 17.1 °F 8.7 °F 9.0 °F 71% 29.93 in 10.0 mi SSW 5.8 mph - N/A   Overcast
5:51 AM 19.9 °F 14.9 °F 12.9 °F 74% 29.88 in 10.0 mi SSW 3.5 mph - N/A   Overcast
6:51 AM 27.0 °F 17.3 °F 19.0 °F 72% 29.86 in 7.0 mi SSW 10.4 mph - 0.00 in Snow Light Snow
7:51 AM 30.0 °F 19.5 °F 19.9 °F 66% 29.82 in 9.0 mi SSW 13.8 mph 21.9 mph 0.00 in   Overcast
8:51 AM 32.0 °F 21.2 °F 21.9 °F 66% 29.78 in 10.0 mi SSW 16.1 mph 24.2 mph N/A   Overcast
9:51 AM 35.1 °F 24.1 °F 24.1 °F 64% 29.75 in 10.0 mi SSW 19.6 mph 35.7 mph N/A   Mostly Cloudy
10:51 AM 37.0 °F 25.9 °F 24.1 °F 59% 29.71 in 10.0 mi SSW 23.0 mph 34.5 mph N/A   Overcast
11:51 AM 37.0 °F 26.7 °F 25.0 °F 62% 29.65 in 10.0 mi SSW 19.6 mph 34.5 mph N/A   Overcast
12:51 PM 37.0 °F 24.9 °F 25.0 °F 62% 29.59 in 10.0 mi SSW 27.6 mph 40.3 mph N/A   Overcast
1:51 PM 37.0 °F 25.9 °F 24.1 °F 59% 29.54 in 10.0 mi SSW 23.0 mph 34.5 mph N/A   Overcast
2:51 PM 37.9 °F 27.9 °F 24.1 °F 57% 29.50 in 10.0 mi SSW 19.6 mph 34.5 mph N/A   Overcast
3:51 PM 37.0 °F 27.0 °F 23.0 °F 57% 29.47 in 10.0 mi SSW 18.4 mph 31.1 mph N/A   Overcast
4:51 PM 35.1 °F 25.9 °F 21.9 °F 59% 29.43 in 10.0 mi SSW 13.8 mph 24.2 mph N/A   Overcast
5:51 PM 33.1 °F 22.2 °F 24.1 °F 70% 29.42 in 3.0 mi SW 17.3 mph 27.6 mph 0.00 in Snow Light Snow
6:07 PM 30.2 °F 20.8 °F 26.6 °F 86% 29.42 in 2.0 mi SW 11.5 mph 20.7 mph 0.00 in Snow Light Snow
6:21 PM 30.2 °F 20.8 °F 26.6 °F 86% 29.42 in 1.8 mi SSW 11.5 mph 21.9 mph 0.00 in Snow Light Snow
6:48 PM 30.2 °F 21.3 °F 28.4 °F 93% 29.40 in 2.0 mi SW 10.4 mph - 0.01 in Snow Light Snow
6:51 PM 30.0 °F 21.7 °F 27.0 °F 88% 29.41 in 2.0 mi SW 9.2 mph - 0.01 in Snow Light Snow
7:04 PM 30.2 °F 20.8 °F 26.6 °F 86% 29.40 in 4.0 mi WSW 11.5 mph - 0.00 in Snow Light Snow
7:29 PM 30.2 °F 21.3 °F 26.6 °F 86% 29.40 in 2.5 mi WSW 10.4 mph - 0.00 in Snow Light Snow
7:51 PM 28.9 °F 17.7 °F 24.1 °F 82% 29.39 in 2.0 mi WSW 15.0 mph 21.9 mph 0.00 in Snow Light Snow
8:08 PM 28.4 °F 18.5 °F 24.8 °F 86% 29.39 in 3.0 mi WSW 11.5 mph - 0.00 in Snow Light Snow
8:51 PM 28.0 °F 17.5 °F 21.0 °F 75% 29.39 in 9.0 mi WSW 12.7 mph - 0.00 in Snow Light Snow
9:19 PM 28.4 °F 19.7 °F 21.2 °F 74% 29.38 in 10.0 mi West 9.2 mph - 0.00 in Snow Light Snow
9:51 PM 27.0 °F 15.2 °F 19.9 °F 75% 29.38 in 10.0 mi West 15.0 mph 19.6 mph 0.00 in Snow Light Snow
10:51 PM 27.0 °F 16.1 °F 19.0 °F 72% 29.39 in 7.0 mi WSW 12.7 mph 17.3 mph 0.00 in Snow Light Snow
11:10 PM 26.6 °F 15.7 °F 17.6 °F 69% 29.39 in 8.0 mi West 12.7 mph - 0.00 in Snow Light Snow
11:51 PM 25.0 °F 13.6 °F 17.1 °F 72% 29.39 in 10.0 mi West 12.7 mph - 0.00 in   Mostly Cloudy